User: anonymous   Login
Location: London
(51.5074°N, 0.1278°W)
Time: 00:20:43
(UTC+01:00)
Language:

KAITUO 1B - Orbit

View from above orbital plane
View from above orbital plane
View from above satellite
View from above satellite

Ground track
Ground track

The orbit data is extracted from the following two-line orbital elements,

1 40912U 15049P   20275.84768726  .00001946  00000-0  91893-4 0  9993
2 40912  97.4502 282.3600 0013809 333.3718 147.8117 15.20561494278884
Epoch (UTC): 01 October 2020 20:20:40
Eccentricity: 0.0013809
inclination: 97.4502°
perigee height: 494 km
apogee height: 513 km
right ascension of ascending node: 282.3600°
argument of perigee: 333.3718°
revolutions per day: 15.20561494
mean anomaly at epoch: 147.8117°
orbit number at epoch: 27888

The dashed part of the orbit path shows where the satellite is in the earth's shadow,  

DLR